Change the Weather History Date:

Wednesday, October 17, 2012

  Actual Average Record
Temperature  
Mean Temperature 74 °F -  
Max Temperature 78 °F 86 °F 93 °F (2010)
Min Temperature 71 °F 69 °F 64 °F (2007)
Cooling Degree Days 10    
Growing Degree Days 24 (Base 50)    
Moisture  
Dew Point 70 °F    
Average Humidity 87    
Maximum Humidity 94    
Minimum Humidity 74    
Precipitation  
Precipitation 0.55 in - - ()
Sea Level Pressure  
Sea Level Pressure 29.87 in    
Wind  
Wind Speed 8 mph ()    
Max Wind Speed 17 mph    
Max Gust Speed -    
Visibility 8.6 miles    
Events Rain    
Averages and records for this station are not official NWS values.
T = Trace of Precipitation, MM = Missing Value Source: Averaged Metar Reports

Daily Weather History Graph

Daily Weather History Graph

Search for Another Location

Airport or City:

Trip Planner

Search our weather history database for the weather conditions in past years. The results will help you decide how hot, cold, wet, or windy it might be!

Date:

Astronomy

Oct. 17, 2012 Rise Set
Actual Time 7:03 AM MDT 6:37 PM MDT
Civil Twilight 6:40 AM MDT 6:59 PM MDT
Nautical Twilight 6:14 AM MDT 7:26 PM MDT
Astronomical Twilight 5:47 AM MDT 7:52 PM MDT
Moon 9:20 AM MDT (10/17) 8:37 PM MDT (10/17)
Length of Visible Light 12h 19m
Length of Day
11h 34m
Waxing Crescent, 7% of the Moon is Illuminated
Oct 17
Waxing Crescent
Oct 21
First Quarter
Oct 29
Full
Nov 6
Last Quarter
Nov 13
New

Hourly Weather History & Observations

Time (MDT) Temp. Dew Point Humidity Pressure Visibility Wind Dir Wind Speed Gust Speed Precip Events Conditions
12:42 AM 75.2 °F 71.6 °F 89% 29.84 in 10.0 mi East 8.1 mph - N/A   Mostly Cloudy
1:40 AM 75.2 °F 71.6 °F 89% 29.84 in 10.0 mi East 9.2 mph - N/A   Mostly Cloudy
2:42 AM 73.4 °F 69.8 °F 88% 29.86 in 5.0 mi SE 17.3 mph - N/A Rain Rain
3:02 AM 73.4 °F 69.8 °F 88% 29.85 in 7.0 mi East 9.2 mph - N/A Rain Light Rain
3:44 AM 71.6 °F 69.8 °F 94% 29.85 in 7.0 mi NNE 9.2 mph - N/A   Overcast
4:40 AM 73.4 °F 69.8 °F 88% 29.85 in 10.0 mi ENE 6.9 mph - N/A   Overcast
5:43 AM 73.4 °F 68.0 °F 83% 29.84 in 8.0 mi NNE 8.1 mph - N/A Rain Light Rain
6:48 AM 73.4 °F 69.8 °F 88% 29.84 in 10.0 mi East 8.1 mph - N/A   Overcast
7:18 AM 75.2 °F 73.4 °F 94% 29.86 in 6.0 mi SE 8.1 mph - N/A Rain Rain
7:42 AM 75.2 °F 73.4 °F 94% 29.88 in 1.0 mi ESE 9.2 mph - N/A Rain Heavy Rain
8:28 AM 73.4 °F 71.6 °F 94% 29.89 in 3.0 mi ENE 10.4 mph - N/A Rain Rain
8:46 AM 73.4 °F 69.8 °F 88% 29.89 in 3.0 mi ENE 9.2 mph - N/A Rain Rain
9:53 AM 73.4 °F 71.6 °F 94% 29.93 in 2.0 mi East 13.8 mph - N/A Rain Rain
10:43 AM 71.6 °F 69.8 °F 94% 29.93 in 5.0 mi East 9.2 mph - N/A Rain Light Rain
10:58 AM 75.2 °F 69.8 °F 83% 29.94 in 5.0 mi ENE 8.1 mph - N/A   Overcast
11:55 AM 77.0 °F 69.8 °F 78% 29.93 in 6.0 mi East 11.5 mph - N/A   Overcast
12:42 PM 77.0 °F 71.6 °F 83% 29.90 in 10.0 mi East 11.5 mph - N/A   Overcast
1:44 PM 75.2 °F 69.8 °F 83% 29.87 in 12.0 mi East 13.8 mph - N/A   Overcast
2:43 PM 75.2 °F 69.8 °F 83% 29.86 in 15.0 mi East 10.4 mph - N/A   Overcast
3:41 PM 77.0 °F 69.8 °F 78% 29.86 in 15.0 mi ESE 10.4 mph - N/A   Overcast
4:40 PM 78.8 °F 69.8 °F 74% 29.85 in 15.0 mi East 9.2 mph - N/A   Overcast
5:43 PM 77.0 °F 69.8 °F 78% 29.84 in 15.0 mi SE 6.9 mph - N/A   Mostly Cloudy
6:42 PM 73.4 °F 69.8 °F 88% 29.84 in 12.0 mi East 6.9 mph - N/A   Mostly Cloudy
7:42 PM 73.4 °F 69.8 °F 88% 29.85 in 10.0 mi ESE 5.8 mph - N/A   Overcast
8:43 PM 73.4 °F 69.8 °F 88% 29.89 in 10.0 mi NNE 5.8 mph - N/A   Mostly Cloudy
9:41 PM 73.4 °F 69.8 °F 88% 29.89 in 10.0 mi NNE 8.1 mph - N/A   Mostly Cloudy
10:45 PM 71.6 °F 69.8 °F 94% 29.90 in 10.0 mi North 6.9 mph - N/A   Mostly Cloudy
11:41 PM 71.6 °F 69.8 °F 94% 29.88 in 10.0 mi North 8.1 mph - N/A   Scattered Clouds